This is the latest recevied weather packets stored in our database for station/object K1LVA. If no packets are shown the sender has not sent any weather packets the latest 10 day(s).
| Time | Temp. | Humidity | Pressure | Rain* | Wind** | Luminosity | Snow |
|---|---|---|---|---|---|---|---|
| 1777849666 | 21.11° C | 41% | 1016.5 hPa | 0 mm | - | 39 W/m² | - |
| 1777849363 | 21.67° C | 42% | 1016.6 hPa | 0 mm | - | 41 W/m² | - |
| 1777849056 | 22.78° C | 41% | 1016.7 hPa | 0 mm | - | 81 W/m² | - |
| 1777848756 | 22.22° C | 39% | 1016.7 hPa | 0 mm | - | 110 W/m² | - |
| 1777848453 | 22.22° C | 38% | 1016.6 hPa | 0 mm | - | 127 W/m² | - |
| 1777848151 | 22.78° C | 36% | 1016.8 hPa | 0 mm | - | 140 W/m² | - |
| 1777847848 | 22.22° C | 37% | 1016.8 hPa | 0 mm | - | 161 W/m² | - |
| 1777847546 | 22.78° C | 37% | 1016.7 hPa | 0 mm | - | 175 W/m² | - |
| 1777847242 | 22.22° C | 37% | 1016.8 hPa | 0 mm | - | 194 W/m² | - |
| 1777846940 | 22.78° C | 38% | 1016.7 hPa | 0 mm | - | 208 W/m² | - |
| 1777846637 | 22.78° C | 38% | 1016.6 hPa | 0 mm | - | 224 W/m² | - |
| 1777846334 | 23.33° C | 38% | 1016.5 hPa | 0 mm | - | 248 W/m² | - |
| 1777846026 | 22.78° C | 39% | 1016.5 hPa | 0 mm | - | 269 W/m² | - |
| 1777845723 | 22.22° C | 37% | 1016.7 hPa | 0 mm | - | 286 W/m² | - |
| 1777845419 | 22.78° C | 38% | 1016.7 hPa | 0 mm | - | 301 W/m² | - |
| 1777845116 | 22.22° C | 36% | 1016.5 hPa | 0 mm | - | 315 W/m² | - |
| 1777844814 | 22.22° C | 37% | 1016.9 hPa | 0 mm | - | 340 W/m² | - |
| 1777844509 | 22.78° C | 37% | 1016.8 hPa | 0 mm | - | 355 W/m² | - |
| 1777844204 | 22.78° C | 37% | 1016.6 hPa | 0 mm | - | 374 W/m² | - |
| 1777843900 | 23.33° C | 36% | 1016.9 hPa | 0 mm | - | 384 W/m² | - |
| 1777843598 | 22.78° C | 35% | 1016.7 hPa | 0 mm | - | 399 W/m² | - |
| 1777843295 | 23.33° C | 37% | 1016.8 hPa | 0 mm | - | 420 W/m² | - |
| 1777842993 | 22.78° C | 38% | 1016.7 hPa | 0 mm | - | 448 W/m² | - |
| 1777842687 | 22.22° C | 39% | 1016.7 hPa | 0 mm | - | 460 W/m² | - |
| 1777842384 | 22.22° C | 37% | 1016.8 hPa | 0 mm | - | 459 W/m² | - |
* Rain latest hour (hover to see other rain measurements)
** Current wind speed in m/s (hover to see current wind gust speed)